This is the latest recevied weather packets stored in our database for station/object WB4ROX. If no packets are shown the sender has not sent any weather packets the latest 10 day(s).
| Time | Temp. | Humidity | Pressure | Rain* | Wind** | Luminosity | Snow |
|---|---|---|---|---|---|---|---|
| 1777853185 | 7.78° C | 39% | 1018.2 hPa | 0 mm | - | 9 W/m² | - |
| 1777852882 | 8.33° C | 37% | 1018.3 hPa | 0 mm | - | 14 W/m² | - |
| 1777852580 | 8.33° C | 36% | 1017.9 hPa | 0 mm | - | 18 W/m² | - |
| 1777852276 | 8.89° C | 36% | 1018.3 hPa | 0 mm | - | 23 W/m² | - |
| 1777851975 | 8.89° C | 36% | 1018.2 hPa | 0 mm | - | 28 W/m² | - |
| 1777851672 | 8.89° C | 35% | 1017.8 hPa | 0 mm | - | 35 W/m² | - |
| 1777851369 | 9.44° C | 35% | 1017.9 hPa | 0 mm | - | 43 W/m² | - |
| 1777851064 | 9.44° C | 34% | 1018.1 hPa | 0 mm | - | 51 W/m² | - |
| 1777850761 | 10° C | 34% | 1017.8 hPa | 0 mm | - | 60 W/m² | - |
| 1777850459 | 10° C | 34% | 1018.2 hPa | 0 mm | - | 70 W/m² | - |
| 1777850156 | 10.56° C | 35% | 1017.9 hPa | 0 mm | - | 84 W/m² | - |
| 1777849853 | 10.56° C | 35% | 1018.1 hPa | 0 mm | - | 95 W/m² | - |
| 1777849549 | 10° C | 37% | 1017.9 hPa | 0 mm | - | 106 W/m² | - |
| 1777849247 | 10° C | 35% | 1018.2 hPa | 0 mm | - | 119 W/m² | - |
| 1777848944 | 10.56° C | 35% | 1017.9 hPa | 0 mm | - | 133 W/m² | - |
| 1777848638 | 10.56° C | 34% | 1017.9 hPa | 0 mm | - | 147 W/m² | - |
| 1777848336 | 10.56° C | 35% | 1018.1 hPa | 0 mm | - | 161 W/m² | - |
| 1777848034 | 11.11° C | 34% | 1018.2 hPa | 0 mm | - | 177 W/m² | - |
| 1777847732 | 10.56° C | 35% | 1018.1 hPa | 0 mm | - | 193 W/m² | - |
| 1777847427 | 11.11° C | 33% | 1018.1 hPa | 0 mm | - | 207 W/m² | - |
| 1777847125 | 11.11° C | 34% | 1018.1 hPa | 0 mm | - | 221 W/m² | - |
| 1777846823 | 11.11° C | 34% | 1018.3 hPa | 0 mm | - | 236 W/m² | - |
| 1777846522 | 11.67° C | 33% | 1018.2 hPa | 0 mm | - | 250 W/m² | - |
| 1777846219 | 11.11° C | 34% | 1018.3 hPa | 0 mm | - | 265 W/m² | - |
| 1777845914 | 10.56° C | 33% | 1017.9 hPa | 0 mm | - | 282 W/m² | - |
* Rain latest hour (hover to see other rain measurements)
** Current wind speed in m/s (hover to see current wind gust speed)